• In Belgien
  • Länderverzeichnis
  • Für 7 Tage
  • Wassertemperatur
  • Satellitenkarten
  • Wetterkarte
  • Widgets
  • user-avatar
    Anmelden

    Stündliche Wetter Gomel

    Heute, 15 Oktober, Montag

    Zeit Temperatur Niederschläge Wind Luftdruck Luftfeuchtigkeit
    00:00 +9°C° 0 mm 0 m/S 761 mmHg 67%
    01:00 +9°C° 0 mm 0 m/S 761 mmHg 68%
    02:00 +8°C° 0 mm 0 m/S 761 mmHg 68%
    03:00 +8°C° 0 mm 0 m/S 761 mmHg 68%
    04:00 +8°C° 0 mm 0 m/S 761 mmHg 69%
    05:00 +8°C° 0 mm 0 m/S 761 mmHg 70%
    06:00 +8°C° 0 mm 0 m/S 761 mmHg 68%
    07:00 +9°C° 0 mm 0 m/S 761 mmHg 66%
    08:00 +11°C° 0 mm 1 m/S 761 mmHg 59%
    09:00 +13°C° 0 mm 1 m/S 761 mmHg 54%
    10:00 +14°C° 0 mm 1 m/S 761 mmHg 49%
    11:00 +16°C° 0 mm 1 m/S 761 mmHg 44%
    12:00 +18°C° 0 mm 1 m/S 761 mmHg 42%
    13:00 +19°C° 0 mm 1 m/S 761 mmHg 40%
    14:00 +19°C° 0 mm 1 m/S 761 mmHg 37%
    15:00 +18°C° 0 mm 1 m/S 760 mmHg 42%
    16:00 +15°C° 0 mm 1 m/S 760 mmHg 47%
    17:00 +14°C° 0 mm 1 m/S 760 mmHg 52%
    18:00 +13°C° 0 mm 1 m/S 760 mmHg 54%
    19:00 +12°C° 0 mm 1 m/S 760 mmHg 56%
    20:00 +12°C° 0 mm 1 m/S 760 mmHg 58%
    21:00 +11°C° 0 mm 1 m/S 760 mmHg 60%
    22:00 +11°C° 0 mm 1 m/S 760 mmHg 62%
    23:00 +11°C° 0 mm 1 m/S 760 mmHg 63%

    Morgen, 16 Oktober, Dienstag

    Zeit Temperatur Niederschläge Wind Luftdruck Luftfeuchtigkeit
    00:00 +11°C° 0 mm 1 m/S 760 mmHg 65%
    01:00 +10°C° 0 mm 1 m/S 760 mmHg 67%
    02:00 +10°C° 0 mm 1 m/S 760 mmHg 69%
    03:00 +10°C° 0 mm 1 m/S 760 mmHg 71%
    04:00 +10°C° 0 mm 1 m/S 760 mmHg 73%
    05:00 +10°C° 0 mm 1 m/S 759 mmHg 76%
    06:00 +10°C° 0 mm 1 m/S 759 mmHg 74%
    07:00 +11°C° 0 mm 1 m/S 760 mmHg 73%
    08:00 +12°C° 0 mm 1 m/S 760 mmHg 72%
    09:00 +14°C° 0 mm 1 m/S 760 mmHg 66%
    10:00 +16°C° 0 mm 1 m/S 760 mmHg 60%
    11:00 +17°C° 0 mm 2 m/S 760 mmHg 54%
    12:00 +18°C° 0 mm 2 m/S 759 mmHg 52%
    13:00 +19°C° 0 mm 2 m/S 759 mmHg 51%
    14:00 +20°C° 0 mm 2 m/S 759 mmHg 49%
    15:00 +19°C° 0 mm 2 m/S 759 mmHg 54%
    16:00 +18°C° 0 mm 1 m/S 758 mmHg 60%
    17:00 +16°C° 0 mm 1 m/S 758 mmHg 65%
    18:00 +15°C° 0 mm 1 m/S 758 mmHg 68%
    19:00 +15°C° 0 mm 1 m/S 758 mmHg 70%
    20:00 +14°C° 0 mm 1 m/S 758 mmHg 73%
    21:00 +14°C° 0 mm 1 m/S 758 mmHg 74%
    22:00 +14°C° 0 mm 1 m/S 758 mmHg 76%
    23:00 +13°C° 0 mm 1 m/S 758 mmHg 78%

    übermorgen, 17 Oktober, Mittwoch

    Zeit Temperatur Niederschläge Wind Luftdruck Luftfeuchtigkeit
    00:00 +13°C° 0 mm 1 m/S 758 mmHg 79%
    01:00 +13°C° 0 mm 1 m/S 758 mmHg 81%
    02:00 +12°C° 0 mm 1 m/S 758 mmHg 83%
    03:00 +12°C° 0 mm 1 m/S 758 mmHg 83%
    04:00 +12°C° 0 mm 1 m/S 758 mmHg 84%
    05:00 +12°C° 0 mm 1 m/S 758 mmHg 85%
    06:00 +12°C° 0 mm 1 m/S 758 mmHg 83%
    07:00 +13°C° 0 mm 1 m/S 758 mmHg 81%
    08:00 +14°C° 0 mm 1 m/S 758 mmHg 78%
    09:00 +15°C° 0 mm 1 m/S 758 mmHg 71%
    10:00 +18°C° 0 mm 1 m/S 759 mmHg 64%
    11:00 +20°C° 0 mm 1 m/S 759 mmHg 58%
    12:00 +21°C° 0 mm 1 m/S 758 mmHg 55%
    13:00 +22°C° 0 mm 1 m/S 758 mmHg 53%
    14:00 +22°C° 0 mm 1 m/S 758 mmHg 50%
    15:00 +21°C° 0 mm 1 m/S 758 mmHg 56%
    16:00 +19°C° 0 mm 1 m/S 758 mmHg 61%
    17:00 +18°C° 0 mm 1 m/S 757 mmHg 67%
    18:00 +16°C° 0 mm 1 m/S 758 mmHg 69%
    19:00 +16°C° 0 mm 1 m/S 758 mmHg 72%
    20:00 +15°C° 0 mm 1 m/S 758 mmHg 74%
    21:00 +15°C° 0 mm 1 m/S 758 mmHg 76%
    22:00 +14°C° 0 mm 1 m/S 758 mmHg 78%
    23:00 +14°C° 0 mm 1 m/S 758 mmHg 79%

    18 Oktober, Donnerstag

    Zeit Temperatur Niederschläge Wind Luftdruck Luftfeuchtigkeit
    00:00 +13°C° 0 mm 1 m/S 758 mmHg 81%
    01:00 +13°C° 0 mm 1 m/S 758 mmHg 82%
    02:00 +13°C° 0 mm 1 m/S 758 mmHg 83%
    03:00 +13°C° 0 mm 1 m/S 758 mmHg 84%
    04:00 +12°C° 0 mm 1 m/S 758 mmHg 85%
    05:00 +12°C° 0 mm 1 m/S 757 mmHg 85%
    06:00 +13°C° 0 mm 1 m/S 757 mmHg 84%
    07:00 +13°C° 0 mm 1 m/S 757 mmHg 82%
    08:00 +14°C° 0 mm 1 m/S 757 mmHg 80%
    09:00 +15°C° 0 mm 1 m/S 757 mmHg 73%
    10:00 +18°C° 0 mm 1 m/S 757 mmHg 66%
    11:00 +20°C° 0 mm 1 m/S 757 mmHg 58%
    12:00 +21°C° 0 mm 1 m/S 757 mmHg 56%
    13:00 +20°C° 0 mm 2 m/S 756 mmHg 54%
    14:00 +21°C° 0 mm 2 m/S 756 mmHg 51%
    15:00 +20°C° 0 mm 2 m/S 756 mmHg 57%
    16:00 +19°C° 0 mm 1 m/S 756 mmHg 62%
    17:00 +18°C° 0 mm 1 m/S 755 mmHg 67%
    18:00 +16°C° 0 mm 1 m/S 755 mmHg 70%
    19:00 +15°C° 0 mm 1 m/S 755 mmHg 72%
    20:00 +15°C° 0 mm 2 m/S 755 mmHg 75%
    21:00 +14°C° 0 mm 1 m/S 755 mmHg 76%
    22:00 +14°C° 0 mm 1 m/S 755 mmHg 77%
    23:00 +14°C° 0 mm 1 m/S 755 mmHg 78%

    19 Oktober, Freitag

    Zeit Temperatur Niederschläge Wind Luftdruck Luftfeuchtigkeit
    00:00 +13°C° 0 mm 1 m/S 755 mmHg 80%
    01:00 +13°C° 0 mm 1 m/S 755 mmHg 81%
    02:00 +13°C° 0 mm 1 m/S 755 mmHg 82%
    03:00 +12°C° 0 mm 1 m/S 755 mmHg 84%
    04:00 +12°C° 0 mm 1 m/S 754 mmHg 85%
    05:00 +12°C° 0 mm 1 m/S 754 mmHg 86%
    06:00 +12°C° 0 mm 1 m/S 754 mmHg 84%
    07:00 +12°C° 0 mm 1 m/S 754 mmHg 82%
    08:00 +13°C° 0 mm 1 m/S 754 mmHg 80%
    09:00 +15°C° 0 mm 1 m/S 754 mmHg 73%
    10:00 +16°C° 0 mm 1 m/S 754 mmHg 66%
    11:00 +19°C° 0 mm 1 m/S 754 mmHg 58%
    12:00 +20°C° 0 mm 1 m/S 753 mmHg 56%
    13:00 +20°C° 0 mm 1 m/S 753 mmHg 53%
    14:00 +21°C° 0 mm 1 m/S 753 mmHg 50%
    15:00 +19°C° 0 mm 1 m/S 752 mmHg 56%
    16:00 +16°C° 0 mm 0 m/S 752 mmHg 61%
    17:00 +14°C° 0 mm 0 m/S 752 mmHg 66%
    18:00 +14°C° 0 mm 0 m/S 752 mmHg 68%
    19:00 +13°C° 0 mm 0 m/S 752 mmHg 71%
    20:00 +13°C° 0 mm 0 m/S 752 mmHg 73%
    21:00 +12°C° 0 mm 0 m/S 752 mmHg 74%
    22:00 +12°C° 0 mm 0 m/S 752 mmHg 76%
    23:00 +11°C° 0 mm 0 m/S 752 mmHg 77%

    20 Oktober, Samstag

    Zeit Temperatur Niederschläge Wind Luftdruck Luftfeuchtigkeit
    00:00 +11°C° 0 mm 0 m/S 752 mmHg 78%
    01:00 +11°C° 0 mm 0 m/S 751 mmHg 79%
    02:00 +10°C° 0 mm 0 m/S 751 mmHg 80%
    03:00 +10°C° 0 mm 0 m/S 751 mmHg 81%
    04:00 +10°C° 0 mm 0 m/S 751 mmHg 82%
    05:00 +10°C° 0 mm 0 m/S 751 mmHg 83%
    06:00 +10°C° 0 mm 0 m/S 751 mmHg 82%
    07:00 +11°C° 0 mm 0 m/S 751 mmHg 80%
    08:00 +11°C° 0 mm 0 m/S 751 mmHg 79%
    09:00 +14°C° 0 mm 1 m/S 751 mmHg 73%
    10:00 +15°C° 0 mm 1 m/S 751 mmHg 67%
    11:00 +18°C° 0 mm 1 m/S 751 mmHg 61%
    12:00 +18°C° 0 mm 1 m/S 751 mmHg 59%
    13:00 +19°C° 0 mm 1 m/S 750 mmHg 57%
    14:00 +19°C° 0 mm 1 m/S 750 mmHg 56%
    15:00 +18°C° 0 mm 1 m/S 750 mmHg 61%
    16:00 +15°C° 0 mm 1 m/S 750 mmHg 67%
    17:00 +14°C° 0 mm 1 m/S 750 mmHg 72%
    18:00 +14°C° 0 mm 1 m/S 750 mmHg 75%
    19:00 +13°C° 0 mm 1 m/S 750 mmHg 78%
    20:00 +12°C° 0 mm 1 m/S 750 mmHg 81%
    21:00 +12°C° 0 mm 2 m/S 750 mmHg 84%
    22:00 +12°C° 0 mm 2 m/S 750 mmHg 86%
    23:00 +10°C° 0 mm 2 m/S 750 mmHg 88%
    Mehr zeigen